Location: Unspecified
(0.0000°N, 0.0000°E)
Time: 15:23:36
(UTC+01:00)

Cosmos 1953 Rocket - Visible Passes

Search period start: 07 December 2016 00:00
Search period end: 17 December 2016 00:00
Orbit: 604 x 636 km, 82.5° (Epoch: 06 December)

Date Brightness Start Highest point End Pass type
(mag) Time Alt. Az. Time Alt. Az. Time Alt. Az.
07 Dec 6.1 21:02:38 10° S 21:03:03 13° S 21:03:03 13° S visible
08 Dec 6.1 21:20:16 10° SSW 21:21:14 16° SSW 21:21:14 16° SSW visible
09 Dec 6.5 21:38:40 10° SW 21:39:28 14° SW 21:39:28 14° SW visible
10 Dec 5.0 20:18:18 10° SSE 20:20:30 23° SE 20:20:30 23° SE visible
11 Dec 3.8 20:35:19 10° S 20:38:49 54° SSE 20:38:49 54° SSE visible
12 Dec 4.4 20:53:03 10° SSW 20:57:10 47° W 20:57:10 47° W visible
13 Dec 5.2 19:34:53 10° SE 19:37:11 14° E 19:38:21 13° ENE visible
13 Dec 5.8 21:11:35 10° SW 21:14:46 20° W 21:15:35 19° WNW visible
14 Dec 4.2 19:50:54 10° SSE 19:54:46 32° E 19:56:48 21° NE visible
15 Dec 3.4 20:08:01 10° S 20:12:20 79° E 20:15:19 20° N visible
16 Dec 4.7 20:25:50 10° SSW 20:29:54 42° W 20:33:52 11° NNW visible
